X Fechar
foto

X Fechar
foto
Clique e saiba mais
Clique e saiba mais
Clique e saiba mais
Clique e saiba mais
Clique e saiba mais
Clique e saiba mais

Edgers Racing

KTM Sacramento

Toro Sports

SP Race Park

JPS Racing

MotoX Pneus

Clique e saiba mais

> Notícias > Últimas Notícias

Mundial de Motocross: Resultados e Vídeo da 6ª etapa em Portugal
Publicado em: 20/05/2019

Tim Gajser e Jorge Prado confirmam vitórias em Portugal
Redação MotoX.com.br - Fotos: Youthstream


Tim Gajser

Após a desastrosa etapa na lama em Mantova, Itália, Tim Gajser aproveitou o bom tempo português para reencontrar a vitória. O esloveno pressionou e aproveitou-se de duas quedas de duas quedas de Antonio Cairoli para alcançar a liderança nas duas baterias.

Com um domingo perfeito Gajser reduziu em 6 pontos a desvantagem em relação ao italiano na classificação geral.

Vídeo



Resultados

P # MXGP Race1 País Bike Time V Diff Gap M.V. Speed
1 243 Gajser, Tim SLO Hon 34:00.609 18 0:00.000 0:00.000 1:46.683 55
2 222 Cairoli, Antonio ITA KTM 34:01.806 18 0:01.197 0:01.197 1:46.852 54.9
3 4 Tonus, Arnaud SUI Yam 34:18.494 18 0:17.885 0:16.688 1:47.555 54.5
4 91 Seewer, Jeremy SUI Yam 34:27.849 18 0:27.240 0:09.355 1:48.231 54.2
5 33 Lieber, Julien BEL Kaw 34:29.489 18 0:28.880 0:01.640 1:48.716 53.9
6 25 Desalle, Clement BEL Kaw 34:30.456 18 0:29.847 0:00.967 1:48.486 54
7 41 Jonass, Pauls LAT Hus 34:36.171 18 0:35.562 0:05.715 1:49.289 53.6
8 259 Coldenhoff, Glenn NED KTM 34:51.814 18 0:51.205 0:15.643 1:49.179 53.7
9 461 Febvre, Romain FRA Yam 34:53.579 18 0:52.970 0:01.765 1:49.178 53.7
10 77 Lupino, Alessandro ITA Kaw 34:54.578 18 0:53.969 0:00.999 1:49.848 53.4
11 27 Jasikonis, Arminas LTU Hus 34:55.391 18 0:54.782 0:00.813 1:49.522 53.5
12 89 Van Horebeek, Jeremy BEL Hon 35:01.238 18 1:00.629 0:05.847 1:49.760 53.4
13 24 Simpson, Shaun GBR KTM 35:03.459 18 1:02.850 0:02.221 1:50.181 53.2
14 128 Monticelli, Ivo ITA KTM 35:04.087 18 1:03.478 0:00.628 1:49.823 53.4
15 21 Paulin, Gautier FRA Yam 35:04.678 18 1:04.069 0:00.591 1:49.918 53.3
16 100 Searle, Tommy GBR Kaw 35:07.411 18 1:06.802 0:02.733 1:50.154 53.2
17 6 Paturel, Benoit FRA Kaw 35:09.232 18 1:08.623 0:01.821 1:50.274 53.2
18 7 Leok, Tanel EST Hus 35:10.667 18 1:10.058 0:01.435 1:50.761 52.9
19 152 Petrov, Petar BUL KTM 35:18.930 18 1:18.321 0:08.263 1:50.871 52.9
20 189 Bogers, Brian NED Hon 35:20.688 18 1:20.079 0:01.758 1:51.075 52.8
21 22 Strijbos, Kevin BEL Yam 35:24.131 18 1:23.522 0:03.443 1:50.821 52.9
22 911 Tixier, Jordi FRA KTM 35:38.969 18 1:38.360 0:14.838 1:50.829 52.9
23 212 Dewulf, Jeffrey BEL KTM 35:43.071 18 1:42.462 0:04.102 1:51.823 52.4
24 297 Gole, Anton SWE Yam 35:55.047 18 1:54.438 0:11.976 1:50.855 52.9
25 18 Brylyakov, Vsevolod RUS Yam 34:04.477 17 1 lap 1 lap 1:50.641 53
26 34 De Waal, Micha-Boy NED Yam 34:06.549 17 1 lap 0:02.072 1:52.228 52.2
27 94 Van der Mierden, Sven NED Yam 34:11.377 17 1 lap 0:04.828 1:52.946 51.9
28 96 Zaragoza, Jorge ESP Yam 34:12.654 17 1 lap 0:01.277 1:51.529 52.6
29 555 Guryev, Artem RUS Hus 34:47.061 17 1 lap 0:34.407 1:54.597 51.2
30 373 Peixe, Sandro POR Suz 35:18.670 17 1 lap 0:31.609 1:55.052 51
31 99 Anstie, Max GBR KTM 19:50.406 9 9 laps 8 laps 1:51.157 52.7
32 92 Valentin, Ander ESP Hus 15:46.026 5 13 laps 4 laps 1:54.224 51.3

P # MXGP Race2 País Bike Time V Diff Gap M.V. Speed
1 243 Gajser, Tim SLO Hon 34:47.988 18 0:00.000 0:00.000 1:49.318 53.6
2 222 Cairoli, Antonio ITA KTM 34:58.592 18 0:10.604 0:10.604 1:49.551 53.5
3 4 Tonus, Arnaud SUI Yam 35:00.897 18 0:12.909 0:02.305 1:49.664 53.5
4 25 Desalle, Clement BEL Kaw 35:03.807 18 0:15.819 0:02.910 1:50.228 53.2
5 21 Paulin, Gautier FRA Yam 35:06.844 18 0:18.856 0:03.037 1:50.793 52.9
6 461 Febvre, Romain FRA Yam 35:08.213 18 0:20.225 0:01.369 1:50.741 52.9
7 41 Jonass, Pauls LAT Hus 35:10.103 18 0:22.115 0:01.890 1:50.719 52.9
8 259 Coldenhoff, Glenn NED KTM 35:12.618 18 0:24.630 0:02.515 1:50.766 52.9
9 33 Lieber, Julien BEL Kaw 35:15.068 18 0:27.080 0:02.450 1:50.666 53
10 91 Seewer, Jeremy SUI Yam 35:18.987 18 0:30.999 0:03.919 1:50.186 53.2
11 27 Jasikonis, Arminas LTU Hus 35:33.229 18 0:45.241 0:14.242 1:50.725 52.9
12 89 Van Horebeek, Jeremy BEL Hon 35:38.474 18 0:50.486 0:05.245 1:51.206 52.7
13 24 Simpson, Shaun GBR KTM 35:39.987 18 0:51.999 0:01.513 1:51.767 52.5
14 77 Lupino, Alessandro ITA Kaw 35:40.280 18 0:52.292 0:00.293 1:51.857 52.4
15 18 Brylyakov, Vsevolod RUS Yam 35:46.550 18 0:58.562 0:06.270 1:52.441 52.1
16 128 Monticelli, Ivo ITA KTM 35:48.391 18 1:00.403 0:01.841 1:51.518 52.6
17 6 Paturel, Benoit FRA Kaw 35:55.635 18 1:07.647 0:07.244 1:52.634 52
18 7 Leok, Tanel EST Hus 35:56.631 18 1:08.643 0:00.996 1:52.096 52.3
19 152 Petrov, Petar BUL KTM 36:04.215 18 1:16.227 0:07.584 1:52.860 51.9
20 297 Gole, Anton SWE Yam 36:07.054 18 1:19.066 0:02.839 1:53.312 51.7
21 189 Bogers, Brian NED Hon 36:09.525 18 1:21.537 0:02.471 1:52.467 52.1
22 911 Tixier, Jordi FRA KTM 36:17.035 18 1:29.047 0:07.510 1:52.445 52.1
23 96 Zaragoza, Jorge ESP Yam 36:21.498 18 1:33.510 0:04.463 1:54.033 51.4
24 100 Searle, Tommy GBR Kaw 33:49.601 17 1 lap 1 lap 1:52.263 52.2
25 373 Peixe, Sandro POR Suz 35:08.938 17 1 lap 1:19.337 1:56.100 50.5
26 555 Guryev, Artem RUS Hus 35:16.357 17 1 lap 0:07.419 1:55.734 50.7
27 22 Strijbos, Kevin BEL Yam 29:46.363 14 4 laps 3 laps 1:52.842 52
28 34 De Waal, Micha-Boy NED Yam 27:42.332 13 5 laps 1 lap 1:56.271 50.4
29 212 Dewulf, Jeffrey BEL KTM 9:27.025 4 14 laps 9 laps 1:55.136 50.9
30 94 Van der Mierden, Sven NED Yam 0:00.000 -1 19 laps 5 laps 0:00.000 0

Pódio
1. Tim Gajser, 50
2. Antonio Cairoli, 44
3. Arnaud Tonus, 40

Classificação Geral
1. Antonio Cairoli, 285
2. Tim Gajser, 251
3. Gautier Paulin, 197

MX2 - Jorge Prado retoma a liderança da classificação


Jorge Prado

O espanhol Jorge Prado venceu mais duas baterias neste domingo em Portugal, mantendo o incrível placar de vencer todas as baterias finais que largou na temporada. Ele apneas ficou de fora do GP da Grã-Bretanha por contusão.

Com o resultado Prado voltou a se posicionar a frente de Thomas Kjer Olsen, com 250 pontos x 247 do dinamarquês. Gustavo Pessoa marcou 1 ponto com a 20ª posição na primeira bateria.

P # MX2 Race1 País Bike Time V Diff Gap M.V. Speed
1 61 Prado, Jorge ESP KTM 35:07.339 18 0:00.000 0:00.000 1:50.184 53.2
2 19 Olsen, Thomas Kjer DEN Hus 35:10.643 18 0:03.304 0:03.304 1:50.236 53.2
3 193 Geerts, Jago BEL Yam 35:34.843 18 0:27.504 0:24.200 1:51.662 52.5
4 43 Evans, Mitchell AUS Hon 35:35.668 18 0:28.329 0:00.825 1:51.323 52.7
5 172 Boisrame, Mathys FRA Hon 35:41.957 18 0:34.618 0:06.289 1:51.953 52.4
6 28 Vialle, Tom FRA KTM 35:42.757 18 0:35.418 0:00.800 1:51.497 52.6
7 29 Jacobi, Henry GER Kaw 35:51.858 18 0:44.519 0:09.101 1:50.522 53
8 811 Sterry, Adam GBR Kaw 35:53.128 18 0:45.789 0:01.270 1:52.341 52.2
9 959 Renaux, Maxime FRA Yam 35:59.168 18 0:51.829 0:06.040 1:52.601 52.1
10 98 Vaessen, Bas NED KTM 36:01.049 18 0:53.710 0:01.881 1:52.712 52
11 225 Strubhart Moreau, Brian FRA Kaw 36:02.235 18 0:54.896 0:01.186 1:51.937 52.4
12 14 Beaton, Jed AUS Hus 36:03.407 18 0:56.068 0:01.172 1:51.276 52.7
13 35 Harrison, Mitchell USA Kaw 36:04.788 18 0:57.449 0:01.381 1:52.068 52.3
14 39 Van De Moosdijk, Roan NED Kaw 36:07.748 18 1:00.409 0:02.960 1:51.456 52.6
15 931 Zanotti, Andrea SMR KTM 36:11.229 18 1:03.890 0:03.481 1:53.364 51.7
16 46 Pootjes, Davy NED Hus 36:15.659 18 1:08.320 0:04.430 1:52.542 52.1
17 161 Östlund, Alvin SWE Hus 36:16.607 18 1:09.268 0:00.948 1:52.920 51.9
18 919 Watson, Ben GBR Yam 36:17.129 18 1:09.790 0:00.522 1:52.198 52.3
19 44 Lesiardo, Morgan ITA KTM 36:28.235 18 1:20.896 0:11.106 1:53.537 51.6
20 56 Pessoa, Gustavo BRA Kaw 36:31.028 18 1:23.689 0:02.793 1:53.394 51.7
21 102 Sikyna, Richard SVK KTM 36:38.842 18 1:31.503 0:07.814 1:54.094 51.4
22 32 Van doninck, Brent BEL Hon 36:40.743 18 1:33.404 0:01.901 1:52.059 52.3
23 53 Walsh, Dylan NZL Hus 36:46.122 18 1:38.783 0:05.379 1:53.911 51.5
24 141 Brown, Alexander GBR KTM 36:47.622 18 1:40.283 0:01.500 1:54.509 51.2
25 101 Pichon, Zachary FRA Hon 36:50.169 18 1:42.830 0:02.547 1:53.188 51.8
26 282 Kahrle, Hampus SWE KTM 35:08.645 17 1 lap 1 lap 1:55.171 50.9
27 75 Roosiorg, Hardi EST KTM 35:16.733 17 1 lap 0:08.088 1:54.457 51.2
28 331 Freidig, Loris SUI Yam 35:18.956 17 1 lap 0:02.223 1:55.471 50.8
29 275 Furbetta, Joakin ITA Hus 35:20.467 17 1 lap 0:01.511 1:55.743 50.6
30 144 Graca, Diogo POR Suz 35:23.756 17 1 lap 0:03.289 1:56.174 50.5
31 184 Bres, Natanael FRA Yam 35:30.067 17 1 lap 0:06.311 1:56.805 50.2
32 783 Toriani, Enzo FRA Hus 35:30.217 17 1 lap 0:00.150 1:56.491 50.3
33 57 Sanayei, Darian USA Kaw 29:19.863 14 4 laps 3 laps 1:52.538 52.1
34 313 Polak, Petr CZE KTM 29:33.323 14 4 laps 0:13.460 1:54.895 51
35 766 Sandner, Michael AUT KTM 20:11.625 9 9 laps 5 laps 1:54.846 51
36 747 Cervellin, Michele ITA Yam 13:01.987 6 12 laps 3 laps 1:52.486 52.1
37 66 Larranaga Olano, Iker ESP KTM 11:17.227 5 13 laps 1 lap 1:53.261 51.8

P # MX2 Race2 País Bike Time V Diff Gap M.V. Speed
1 61 Prado, Jorge ESP KTM 35:47.966 18 0:00.000 0:00.000 1:51.961 52.4
2 29 Jacobi, Henry GER Kaw 35:51.878 18 0:03.912 0:03.912 1:52.013 52.3
3 43 Evans, Mitchell AUS Hon 35:53.377 18 0:05.411 0:01.499 1:52.540 52.1
4 19 Olsen, Thomas Kjer DEN Hus 35:59.971 18 0:12.005 0:06.594 1:51.939 52.4
5 39 Van De Moosdijk, Roan NED Kaw 36:11.176 18 0:23.210 0:11.205 1:52.738 52
6 32 Van doninck, Brent BEL Hon 36:24.439 18 0:36.473 0:13.263 1:54.092 51.4
7 747 Cervellin, Michele ITA Yam 36:29.193 18 0:41.227 0:04.754 1:54.235 51.3
8 57 Sanayei, Darian USA Kaw 36:31.672 18 0:43.706 0:02.479 1:53.648 51.6
9 959 Renaux, Maxime FRA Yam 36:33.253 18 0:45.287 0:01.581 1:53.884 51.5
10 46 Pootjes, Davy NED Hus 36:34.469 18 0:46.503 0:01.216 1:53.605 51.6
11 35 Harrison, Mitchell USA Kaw 36:35.622 18 0:47.656 0:01.153 1:53.613 51.6
12 811 Sterry, Adam GBR Kaw 36:39.381 18 0:51.415 0:03.759 1:53.899 51.5
13 28 Vialle, Tom FRA KTM 36:44.213 18 0:56.247 0:04.832 1:54.189 51.3
14 919 Watson, Ben GBR Yam 36:45.260 18 0:57.294 0:01.047 1:52.717 52
15 225 Strubhart Moreau, Brian FRA Kaw 36:59.070 18 1:11.104 0:13.810 1:53.745 51.5
16 161 Östlund, Alvin SWE Hus 37:01.032 18 1:13.066 0:01.962 1:55.514 50.7
17 931 Zanotti, Andrea SMR KTM 37:09.165 18 1:21.199 0:08.133 1:55.841 50.6
18 44 Lesiardo, Morgan ITA KTM 37:12.331 18 1:24.365 0:03.166 1:56.164 50.5
19 75 Roosiorg, Hardi EST KTM 37:13.469 18 1:25.503 0:01.138 1:55.474 50.8
20 141 Brown, Alexander GBR KTM 37:21.474 18 1:33.508 0:08.005 1:56.190 50.5
21 101 Pichon, Zachary FRA Hon 37:41.929 18 1:53.963 0:20.455 1:56.969 50.1
22 282 Kahrle, Hampus SWE KTM 35:49.918 17 1 lap 1 lap 1:57.523 49.9
23 102 Sikyna, Richard SVK KTM 35:55.471 17 1 lap 0:05.553 1:56.006 50.5
24 331 Freidig, Loris SUI Yam 35:56.505 17 1 lap 0:01.034 1:58.257 49.6
25 783 Toriani, Enzo FRA Hus 35:57.569 17 1 lap 0:01.064 1:57.292 50
26 275 Furbetta, Joakin ITA Hus 36:17.529 17 1 lap 0:19.960 1:56.843 50.2
27 144 Graca, Diogo POR Suz 36:18.811 17 1 lap 0:01.282 1:59.259 49.2
28 53 Walsh, Dylan NZL Hus 19:31.320 9 9 laps 8 laps 1:56.571 50.3
29 172 Boisrame, Mathys FRA Hon 17:56.250 8 10 laps 1 lap 1:55.282 50.9
30 313 Polak, Petr CZE KTM 11:57.038 5 13 laps 3 laps 1:58.854 49.3
31 56 Pessoa, Gustavo BRA Kaw 9:53.776 4 14 laps 1 lap 1:56.695 50.2
32 98 Vaessen, Bas NED KTM 10:06.072 4 14 laps 0:12.296 1:56.163 50.5
33 193 Geerts, Jago BEL Yam 10:07.359 4 14 laps 0:01.287 1:53.560 51.6
34 14 Beaton, Jed AUS Hus 11:06.561 4 14 laps 0:59.202 1:57.268 50
35 184 Bres, Natanael FRA Yam 6:12.343 2 16 laps 2 laps 2:03.147 47.6

Pódio
1. Jorge Prado, 50
2. Thomas Kjer Olsen, 40
3. Mitchell Evans, 38

Classificação Geral
1. Jorge Prado, 250
2. Thomas Kjer Olsen, 40
3. Mitchell Evans, 38









© 2000 - 2018 MotoX MX1 Internet